EN

Hourly Weather Almalyk

Today, 28 January, Thursday

Time Temperature Precipitation Wind Pressure Humidity
00:00 -6°C° 0 mm 3 mps 694 mmHg 54%
01:00 -6°C° 0 mm 3 mps 694 mmHg 53%
02:00 -6°C° 0 mm 3 mps 694 mmHg 53%
03:00 -6°C° 0 mm 3 mps 694 mmHg 53%
04:00 -6°C° 0 mm 3 mps 694 mmHg 53%
05:00 -7°C° 0 mm 3 mps 694 mmHg 53%
06:00 -7°C° 0 mm 3 mps 694 mmHg 53%
07:00 -7°C° 0 mm 3 mps 694 mmHg 54%
08:00 -7°C° 0 mm 3 mps 694 mmHg 54%
09:00 -5°C° 0 mm 3 mps 694 mmHg 58%
10:00 -2°C° 0 mm 3 mps 694 mmHg 61%
11:00 +1°C° 0 mm 2 mps 694 mmHg 65%
12:00 +1°C° 0 mm 2 mps 693 mmHg 67%
13:00 +3°C° 0 mm 1 mps 693 mmHg 69%
14:00 +3°C° 0 mm 1 mps 693 mmHg 71%
15:00 +2°C° 0 mm 1 mps 692 mmHg 68%
16:00 -1°C° 0 mm 2 mps 692 mmHg 65%
17:00 -2°C° 0 mm 2 mps 692 mmHg 62%
18:00 -3°C° 0 mm 2 mps 693 mmHg 60%
19:00 -4°C° 0 mm 3 mps 693 mmHg 58%
20:00 -5°C° 0 mm 3 mps 694 mmHg 55%
21:00 -5°C° 0 mm 3 mps 694 mmHg 54%
22:00 -6°C° 0 mm 3 mps 694 mmHg 53%
23:00 -6°C° 0 mm 3 mps 694 mmHg 52%

Tomorrow, 29 January, Friday

Time Temperature Precipitation Wind Pressure Humidity
00:00 -6°C° 0 mm 3 mps 694 mmHg 52%
01:00 -6°C° 0 mm 3 mps 694 mmHg 51%
02:00 -6°C° 0 mm 3 mps 694 mmHg 51%
03:00 -6°C° 0 mm 3 mps 694 mmHg 51%
04:00 -7°C° 0 mm 4 mps 694 mmHg 51%
05:00 -8°C° 0 mm 4 mps 694 mmHg 51%
06:00 -8°C° 0 mm 4 mps 694 mmHg 51%
07:00 -8°C° 0 mm 4 mps 694 mmHg 51%
08:00 -7°C° 0 mm 4 mps 695 mmHg 51%
09:00 -5°C° 0 mm 4 mps 694 mmHg 54%
10:00 -2°C° 0 mm 3 mps 694 mmHg 58%
11:00 0°C° 0 mm 3 mps 694 mmHg 61%
12:00 0°C° 0 mm 3 mps 693 mmHg 62%
13:00 +2°C° 0 mm 2 mps 693 mmHg 64%
14:00 +3°C° 0 mm 2 mps 692 mmHg 65%
15:00 +2°C° 0 mm 2 mps 692 mmHg 63%
16:00 -1°C° 0 mm 2 mps 692 mmHg 60%
17:00 -2°C° 0 mm 3 mps 693 mmHg 58%
18:00 -2°C° 0 mm 3 mps 693 mmHg 56%
19:00 -4°C° 0 mm 3 mps 693 mmHg 54%
20:00 -5°C° 0 mm 4 mps 694 mmHg 51%
21:00 -5°C° 0 mm 4 mps 694 mmHg 51%
22:00 -5°C° 0 mm 4 mps 694 mmHg 50%
23:00 -5°C° 0 mm 4 mps 694 mmHg 49%

Day after tomorrow, 30 January, Saturday

Time Temperature Precipitation Wind Pressure Humidity
00:00 -7°C° 0 mm 4 mps 694 mmHg 49%
01:00 -7°C° 0 mm 4 mps 694 mmHg 49%
02:00 -7°C° 0 mm 4 mps 694 mmHg 50%
03:00 -7°C° 0 mm 4 mps 694 mmHg 49%
04:00 -7°C° 0 mm 4 mps 694 mmHg 49%
05:00 -7°C° 0 mm 4 mps 694 mmHg 49%
06:00 -7°C° 0 mm 4 mps 694 mmHg 49%
07:00 -7°C° 0 mm 4 mps 694 mmHg 49%
08:00 -7°C° 0 mm 5 mps 694 mmHg 49%
09:00 -5°C° 0 mm 4 mps 694 mmHg 51%
10:00 -3°C° 0 mm 4 mps 693 mmHg 53%
11:00 -1°C° 0 mm 4 mps 693 mmHg 55%
12:00 +1°C° 0 mm 3 mps 692 mmHg 57%
13:00 +1°C° 0 mm 3 mps 692 mmHg 58%
14:00 +2°C° 0 mm 3 mps 691 mmHg 59%
15:00 +1°C° 0 mm 3 mps 691 mmHg 58%
16:00 0°C° 0 mm 3 mps 691 mmHg 56%
17:00 -2°C° 0 mm 4 mps 691 mmHg 54%
18:00 -3°C° 0 mm 4 mps 691 mmHg 53%
19:00 -3°C° 0 mm 4 mps 691 mmHg 51%
20:00 -4°C° 0 mm 4 mps 691 mmHg 49%
21:00 -4°C° 0 mm 4 mps 691 mmHg 49%
22:00 -4°C° 0 mm 4 mps 691 mmHg 49%
23:00 -4°C° 0 mm 4 mps 691 mmHg 49%

31 January, Sunday

Time Temperature Precipitation Wind Pressure Humidity
00:00 -3°C° 0 mm 4 mps 691 mmHg 50%
01:00 -3°C° 0 mm 4 mps 691 mmHg 50%
02:00 -3°C° 0 mm 4 mps 690 mmHg 51%
03:00 -3°C° 0 mm 4 mps 690 mmHg 51%
04:00 -3°C° 0 mm 4 mps 690 mmHg 52%
05:00 -3°C° 0 mm 4 mps 689 mmHg 52%
06:00 -3°C° 0 mm 4 mps 689 mmHg 52%
07:00 -3°C° 0 mm 4 mps 689 mmHg 52%
08:00 -3°C° 0 mm 4 mps 689 mmHg 51%
09:00 -1°C° 0 mm 4 mps 688 mmHg 54%
10:00 +1°C° 0 mm 3 mps 688 mmHg 56%
11:00 +2°C° 0 mm 3 mps 687 mmHg 59%
12:00 +3°C° 0 mm 3 mps 686 mmHg 61%
13:00 +3°C° 0 mm 3 mps 685 mmHg 63%
14:00 +4°C° 0 mm 3 mps 684 mmHg 64%
15:00 +4°C° 0 mm 2 mps 684 mmHg 63%
16:00 +3°C° 0 mm 2 mps 684 mmHg 61%
17:00 +2°C° 0 mm 2 mps 683 mmHg 59%
18:00 +1°C° 0 mm 2 mps 684 mmHg 59%
19:00 +1°C° 0 mm 2 mps 685 mmHg 60%
20:00 -1°C° 0 mm 2 mps 686 mmHg 60%
21:00 -1°C° 0 mm 2 mps 686 mmHg 60%
22:00 +1°C° 0 mm 2 mps 687 mmHg 61%
23:00 +1°C° 0 mm 2 mps 688 mmHg 61%

1 February, Monday

Time Temperature Precipitation Wind Pressure Humidity
00:00 +1°C° 0 mm 2 mps 688 mmHg 62%
01:00 +1°C° 0 mm 3 mps 689 mmHg 63%
02:00 +1°C° 0 mm 3 mps 689 mmHg 63%
03:00 +2°C° 0 mm 3 mps 689 mmHg 62%
04:00 +2°C° 0 mm 3 mps 689 mmHg 60%
05:00 +3°C° 0 mm 2 mps 689 mmHg 59%
06:00 +3°C° 0 mm 2 mps 690 mmHg 60%
07:00 +3°C° 0 mm 1 mps 690 mmHg 61%
08:00 +3°C° 0 mm 1 mps 690 mmHg 62%
09:00 +4°C° 0 mm 1 mps 690 mmHg 65%
10:00 +5°C° 0 mm 1 mps 690 mmHg 68%
11:00 +6°C° 0 mm 1 mps 690 mmHg 71%
12:00 +7°C° 0 mm 1 mps 690 mmHg 73%
13:00 +7°C° 0 mm 1 mps 690 mmHg 74%
14:00 +7°C° 0 mm 1 mps 689 mmHg 76%
15:00 +6°C° 0 mm 1 mps 690 mmHg 75%
16:00 +5°C° 0 mm 1 mps 690 mmHg 73%
17:00 +3°C° 0 mm 0 mps 691 mmHg 72%
18:00 +4°C° 0 mm 1 mps 691 mmHg 73%
19:00 +3°C° 0 mm 2 mps 692 mmHg 75%
20:00 +2°C° 0 mm 3 mps 693 mmHg 77%
21:00 +2°C° 0 mm 3 mps 693 mmHg 76%
22:00 +2°C° 0 mm 3 mps 693 mmHg 76%
23:00 +2°C° 0 mm 3 mps 694 mmHg 75%

2 February, Tuesday

Time Temperature Precipitation Wind Pressure Humidity
00:00 +2°C° 0 mm 3 mps 694 mmHg 74%
01:00 +2°C° 0 mm 3 mps 694 mmHg 73%
02:00 +2°C° 0 mm 2 mps 694 mmHg 72%
03:00 +2°C° 0 mm 2 mps 694 mmHg 72%
04:00 +2°C° 0 mm 2 mps 694 mmHg 71%
05:00 +2°C° 0 mm 2 mps 695 mmHg 71%
06:00 +2°C° 0 mm 2 mps 695 mmHg 70%
07:00 +2°C° 0 mm 2 mps 695 mmHg 70%
08:00 +2°C° 0 mm 2 mps 696 mmHg 69%
09:00 +4°C° 0 mm 1 mps 696 mmHg 70%
10:00 +6°C° 0 mm 1 mps 695 mmHg 71%
11:00 +7°C° 0 mm 1 mps 695 mmHg 71%
12:00 +7°C° 0 mm 1 mps 695 mmHg 72%
13:00 +8°C° 0 mm 1 mps 694 mmHg 72%
14:00 +7°C° 0 mm 0 mps 694 mmHg 72%
15:00 +7°C° 0 mm 1 mps 694 mmHg 71%
16:00 +7°C° 0 mm 1 mps 694 mmHg 70%
17:00 +6°C° 0 mm 1 mps 695 mmHg 69%
18:00 +5°C° 0 mm 1 mps 695 mmHg 68%
19:00 +3°C° 0 mm 2 mps 696 mmHg 67%
20:00 +3°C° 0 mm 2 mps 696 mmHg 66%
21:00 +2°C° 0 mm 2 mps 696 mmHg 65%
22:00 +1°C° 0 mm 3 mps 696 mmHg 63%
23:00 +1°C° 0 mm 3 mps 696 mmHg 62%
Show more